Location: Unspecified
(0.0000°N, 0.0000°E)
Time: 20:01:21
(UTC+02:00)

Atlas Centaur 2 - Visible Passes

Search period start: 20 September 2014 00:00
Search period end: 30 September 2014 00:00
Orbit: 460 x 1328 km, 30.4° (Epoch: 19 September)

Date Brightness Start Highest point End Pass type
(mag) Time Alt. Az. Time Alt. Az. Time Alt. Az.
20 Sep 4.3 06:04:50 17° NNW 06:10:22 36° NNE 06:18:03 10° E visible
20 Sep 3.6 20:52:05 10° WNW 20:54:24 16° NNW 20:56:50 10° NNE visible
21 Sep 5.4 04:21:54 11° NE 04:21:54 11° NE 04:22:46 10° NE visible
21 Sep 3.9 06:04:45 23° NNW 06:09:30 45° NNE 06:17:39 10° ESE visible
21 Sep 4.0 20:53:30 10° NNW 20:53:50 10° NNW 20:54:09 10° NNW visible
22 Sep 5.3 04:21:49 13° ENE 04:21:49 13° ENE 04:23:25 10° ENE visible
22 Sep 3.5 06:04:40 31° NNW 06:08:36 58° NNE 06:17:04 10° ESE visible
23 Sep 5.2 04:21:43 15° ENE 04:21:43 15° ENE 04:23:38 10° E visible
23 Sep 3.1 06:04:34 42° NW 06:07:41 74° NNE 06:16:20 10° ESE visible
24 Sep 5.1 04:21:35 16° E 04:21:35 16° E 04:23:32 10° E visible
24 Sep 2.9 06:04:25 52° WNW 06:06:45 88° SSW 06:15:26 10° ESE visible
25 Sep 5.1 04:21:22 17° E 04:21:22 17° E 04:23:12 10° E visible
25 Sep 2.9 06:04:13 56° W 06:05:51 69° SSW 06:14:25 10° SE visible
26 Sep 5.1 04:21:05 16° E 04:21:05 16° E 04:22:40 10° ESE visible
26 Sep 3.1 06:03:56 50° WSW 06:04:59 53° SSW 06:13:16 10° SE visible
27 Sep 5.2 04:20:43 15° ESE 04:20:43 15° ESE 04:21:57 10° ESE visible
27 Sep 3.4 06:03:33 40° SW 06:04:10 41° SSW 06:12:00 10° SE visible
28 Sep 5.3 04:20:16 13° ESE 04:20:16 13° ESE 04:21:04 10° ESE visible
28 Sep 3.8 06:03:05 31° SSW 06:03:25 31° SSW 06:10:36 10° SSE visible
29 Sep 5.3 04:19:43 11° SE 04:19:43 11° SE 04:20:03 10° SE visible
29 Sep 4.1 06:02:32 24° SSW 06:02:43 24° SSW 06:09:03 10° SSE visible
